BJACK01 KDCA-KDCA

Flight info

Callsign BJACK01
Flight time 2h 1m
Altitude 1000
Route VFR OPR
Aircraft AS65/L-VGD/C

Departure

Time 2026-05-07 22:42
Airport Ronald Reagan Washington National Airport (KDCA)

Arrival

Time 2026-05-08 00:43
Airport Ronald Reagan Washington National Airport (KDCA)
Time Latitude Longitude Altitude Speed Heading
2026-05-07 22:29 38.84599 -77.04619 20 ft 0 kts 123°
2026-05-07 22:39 38.84599 -77.04604 55 ft 3 kts 154°
2026-05-07 22:39 38.84626 -77.04645 167 ft 19 kts 276°
2026-05-07 22:39 38.84604 -77.05063 243 ft 76 kts 256°
2026-05-07 22:39 38.84451 -77.05866 259 ft 110 kts 267°
2026-05-07 22:40 38.84486 -77.06870 331 ft 109 kts 271°
2026-05-07 22:40 38.84492 -77.07821 302 ft 106 kts 259°
2026-05-07 22:40 38.84458 -77.08773 295 ft 112 kts 276°
2026-05-07 22:40 38.84647 -77.09723 307 ft 108 kts 272°
2026-05-07 22:41 38.84650 -77.10664 478 ft 107 kts 265°
2026-05-07 22:41 38.84835 -77.11589 516 ft 110 kts 292°
2026-05-07 22:41 38.85039 -77.12530 508 ft 110 kts 282°
2026-05-07 22:41 38.85348 -77.13434 506 ft 111 kts 295°
2026-05-07 22:42 38.85774 -77.14263 541 ft 112 kts 297°
2026-05-07 22:42 38.86348 -77.14936 721 ft 113 kts 329°
2026-05-07 22:42 38.87034 -77.15423 824 ft 113 kts 325°
2026-05-07 22:42 38.87595 -77.16112 815 ft 110 kts 305°
2026-05-07 22:43 38.88083 -77.16868 807 ft 110 kts 307°
2026-05-07 22:43 38.88579 -77.17608 804 ft 110 kts 307°
2026-05-07 22:43 38.89064 -77.18363 805 ft 107 kts 306°
2026-05-07 22:43 38.89532 -77.19121 801 ft 109 kts 304°
2026-05-07 22:44 38.89988 -77.19884 797 ft 109 kts 304°
2026-05-07 22:44 38.90520 -77.20598 803 ft 110 kts 306°
2026-05-07 22:44 38.90951 -77.21388 798 ft 110 kts 315°
2026-05-07 22:44 38.91675 -77.21685 799 ft 114 kts
2026-05-07 22:45 38.92440 -77.21480 800 ft 111 kts 21°
2026-05-07 22:45 38.93142 -77.21075 803 ft 110 kts 27°
2026-05-07 22:45 38.93844 -77.20662 799 ft 113 kts 26°
2026-05-07 22:45 38.94553 -77.20234 802 ft 113 kts 31°
2026-05-07 22:46 38.95186 -77.19639 803 ft 112 kts 34°
2026-05-07 22:46 38.95883 -77.19191 804 ft 111 kts 34°
2026-05-07 22:46 38.96361 -77.18439 798 ft 109 kts 49°
2026-05-07 22:46 38.97001 -77.17933 798 ft 111 kts 13°
2026-05-07 22:47 38.97752 -77.17735 800 ft 110 kts 24°
2026-05-07 22:47 38.98186 -77.16968 807 ft 109 kts 78°
2026-05-07 22:47 38.98416 -77.16071 803 ft 109 kts 59°
2026-05-07 22:47 38.99072 -77.15662 806 ft 110 kts 358°
2026-05-07 22:48 38.99833 -77.15734 801 ft 110 kts
2026-05-07 22:48 39.00524 -77.15339 803 ft 108 kts 27°
2026-05-07 22:48 39.01240 -77.14963 768 ft 124 kts 16°
2026-05-07 22:48 39.01896 -77.14194 825 ft 130 kts 68°
2026-05-07 22:49 39.01916 -77.13059 957 ft 128 kts 100°
2026-05-07 22:49 39.01801 -77.11926 1028 ft 128 kts 101°
2026-05-07 22:49 39.01618 -77.10805 1031 ft 129 kts 97°
2026-05-07 22:49 39.01412 -77.09703 1025 ft 128 kts 121°
2026-05-07 22:50 39.00852 -77.08826 1024 ft 126 kts 129°
2026-05-07 22:50 39.00583 -77.08164 1020 ft 129 kts 107°
2026-05-07 22:50 39.00837 -77.06724 1021 ft 131 kts 46°
2026-05-07 22:50 39.01310 -77.05752 1019 ft 131 kts 81°
2026-05-07 22:51 39.01315 -77.04592 1021 ft 128 kts 91°
2026-05-07 22:51 39.01326 -77.03440 1019 ft 129 kts 85°
2026-05-07 22:51 39.01720 -77.02424 1019 ft 130 kts 45°
2026-05-07 22:51 39.02164 -77.01908 1021 ft 130 kts 40°
2026-05-07 22:52 39.02811 -77.01094 1020 ft 131 kts 51°
2026-05-07 22:52 39.03423 -77.00238 1020 ft 130 kts 43°
2026-05-07 22:52 39.04103 -76.99485 1019 ft 129 kts 44°
2026-05-07 22:52 39.04675 -76.98598 1020 ft 129 kts 52°
2026-05-07 22:53 39.05247 -76.97701 1019 ft 129 kts 51°
2026-05-07 22:53 39.05802 -76.96793 1019 ft 129 kts 48°
2026-05-07 22:53 39.06511 -76.96100 1019 ft 129 kts 30°
2026-05-07 22:53 39.07311 -76.95574 1018 ft 128 kts 23°
2026-05-07 22:54 39.08091 -76.95060 1016 ft 127 kts 34°
2026-05-07 22:54 39.08803 -76.94394 1019 ft 126 kts 31°
2026-05-07 22:54 39.09546 -76.93792 1024 ft 127 kts 40°
2026-05-07 22:54 39.10166 -76.92957 1023 ft 130 kts 47°
2026-05-07 22:55 39.10755 -76.92071 1018 ft 130 kts 58°
2026-05-07 22:55 39.11086 -76.90995 1012 ft 129 kts 74°
2026-05-07 22:55 39.11384 -76.89918 1010 ft 127 kts 66°
2026-05-07 22:55 39.11742 -76.88871 1010 ft 128 kts 67°
2026-05-07 22:56 39.12101 -76.87825 1011 ft 127 kts 67°
2026-05-07 22:56 39.12458 -76.86781 1027 ft 127 kts 66°
2026-05-07 22:56 39.12817 -76.85734 1031 ft 129 kts 68°
2026-05-07 22:56 39.13176 -76.84681 1031 ft 128 kts 67°
2026-05-07 22:57 39.13534 -76.83627 1030 ft 129 kts 67°
2026-05-07 22:57 39.13879 -76.82593 1038 ft 120 kts 68°
2026-05-07 22:57 39.14171 -76.81648 1034 ft 109 kts 69°
2026-05-07 22:57 39.14438 -76.80737 1029 ft 110 kts 67°
2026-05-07 22:58 39.15042 -76.80193 1022 ft 116 kts
2026-05-07 22:58 39.15832 -76.80641 1021 ft 134 kts 311°
2026-05-07 22:58 39.16399 -76.81537 1084 ft 127 kts 304°
2026-05-07 22:58 39.16857 -76.82499 1295 ft 126 kts 296°
2026-05-07 22:59 39.17205 -76.83530 1435 ft 125 kts 290°
2026-05-07 22:59 39.17460 -76.84604 1431 ft 126 kts 284°
2026-05-07 22:59 39.17627 -76.85701 1428 ft 124 kts 277°
2026-05-07 22:59 39.18058 -76.86659 1432 ft 127 kts 319°
2026-05-07 23:00 39.18667 -76.87430 1423 ft 120 kts 316°
2026-05-07 23:00 39.19271 -76.88179 1414 ft 120 kts 316°
2026-05-07 23:00 39.19849 -76.88942 1407 ft 121 kts 302°
2026-05-07 23:00 39.20008 -76.90015 1407 ft 123 kts 275°
2026-05-07 23:01 39.20037 -76.91132 1410 ft 125 kts 272°
2026-05-07 23:01 39.20229 -76.92216 1405 ft 125 kts 298°
2026-05-07 23:01 39.20775 -76.93050 1404 ft 121 kts 321°
2026-05-07 23:01 39.21446 -76.93722 1414 ft 124 kts 324°
2026-05-07 23:02 39.22239 -76.94047 1417 ft 125 kts
2026-05-07 23:02 39.22964 -76.93463 1418 ft 130 kts 53°
2026-05-07 23:02 39.23060 -76.92335 1417 ft 134 kts 113°
2026-05-07 23:02 39.22568 -76.91339 1418 ft 131 kts 124°
2026-05-07 23:03 39.22013 -76.90401 1412 ft 133 kts 133°
2026-05-07 23:03 39.21254 -76.89707 1417 ft 134 kts 151°
2026-05-07 23:03 39.20423 -76.89100 1404 ft 142 kts 152°
2026-05-07 23:03 39.19487 -76.88546 1404 ft 153 kts 156°
2026-05-07 23:04 39.18522 -76.87868 1426 ft 161 kts 150°
2026-05-07 23:04 39.17622 -76.87228 1523 ft 134 kts 154°
2026-05-07 23:04 39.16903 -76.86738 1447 ft 105 kts 151°
2026-05-07 23:04 39.16308 -76.86277 1435 ft 95 kts 148°
2026-05-07 23:05 39.15756 -76.85858 1423 ft 94 kts 158°
2026-05-07 23:05 39.15100 -76.85453 1411 ft 114 kts 155°
2026-05-07 23:05 39.14350 -76.84960 1421 ft 127 kts 155°
2026-05-07 23:05 39.13536 -76.84406 1423 ft 138 kts 154°
2026-05-07 23:06 39.12703 -76.83717 1419 ft 148 kts 140°
2026-05-07 23:06 39.12031 -76.82655 1425 ft 157 kts 125°
2026-05-07 23:06 39.11467 -76.81420 1425 ft 163 kts 120°
2026-05-07 23:06 39.10975 -76.80103 1426 ft 168 kts 117°
2026-05-07 23:07 39.10386 -76.78788 1443 ft 165 kts 124°
2026-05-07 23:07 39.09775 -76.77588 1437 ft 160 kts 126°
2026-05-07 23:07 39.09168 -76.76427 1450 ft 152 kts 120°
2026-05-07 23:07 39.09011 -76.75162 1462 ft 137 kts 74°
2026-05-07 23:08 39.09028 -76.74121 1494 ft 98 kts 121°
2026-05-07 23:08 39.08777 -76.73655 1453 ft 31 kts 103°
2026-05-07 23:08 39.08697 -76.73477 1428 ft 16 kts 146°
2026-05-07 23:08 39.08649 -76.73063 1343 ft 79 kts 112°
2026-05-07 23:09 39.08413 -76.72345 1091 ft 86 kts 167°
2026-05-07 23:09 39.08102 -76.72649 866 ft 91 kts 286°
2026-05-07 23:09 39.08225 -76.73489 690 ft 90 kts 293°
2026-05-07 23:09 39.08411 -76.74155 636 ft 69 kts 288°
2026-05-07 23:10 39.08535 -76.74690 480 ft 63 kts 281°
2026-05-07 23:10 39.08696 -76.75367 379 ft 94 kts 280°
2026-05-07 23:10 39.08817 -76.76247 418 ft 104 kts 273°
2026-05-07 23:10 39.08629 -76.76983 647 ft 76 kts 180°
2026-05-07 23:11 39.08212 -76.76698 635 ft 78 kts 142°
2026-05-07 23:11 39.07762 -76.76317 642 ft 69 kts 147°
2026-05-07 23:11 39.07421 -76.76054 641 ft 46 kts 147°
2026-05-07 23:11 39.07216 -76.75883 640 ft 26 kts 147°
2026-05-07 23:12 39.07123 -76.75795 631 ft 8 kts 147°
2026-05-07 23:12 39.07114 -76.75783 631 ft 0 kts 147°
2026-05-07 23:12 39.07114 -76.75785 630 ft 0 kts 147°
2026-05-07 23:12 39.07115 -76.75785 630 ft 0 kts 147°
2026-05-07 23:13 39.07115 -76.75784 630 ft 1 kts 147°
2026-05-07 23:13 39.07115 -76.75785 630 ft 0 kts 147°
2026-05-07 23:13 39.07114 -76.75785 630 ft 0 kts 147°
2026-05-07 23:14 39.07115 -76.75784 629 ft 0 kts 147°
2026-05-07 23:14 39.07114 -76.75785 630 ft 0 kts 147°
2026-05-07 23:14 39.07115 -76.75784 630 ft 0 kts 147°
2026-05-07 23:15 39.07115 -76.75785 630 ft 0 kts 147°
2026-05-07 23:15 39.07115 -76.75784 629 ft 0 kts 147°
2026-05-07 23:15 39.07115 -76.75785 630 ft 0 kts 147°
2026-05-07 23:16 39.07114 -76.75785 630 ft 0 kts 147°
2026-05-07 23:16 39.07115 -76.75783 630 ft 0 kts 147°
2026-05-07 23:16 39.07115 -76.75784 629 ft 0 kts 147°
2026-05-07 23:17 39.07114 -76.75785 630 ft 0 kts 147°
2026-05-07 23:17 39.07115 -76.75784 629 ft 0 kts 147°
2026-05-07 23:18 39.07115 -76.75785 630 ft 0 kts 147°
2026-05-07 23:18 39.07115 -76.75784 630 ft 0 kts 147°
2026-05-07 23:18 39.07115 -76.75785 630 ft 0 kts 147°
2026-05-07 23:19 39.07115 -76.75784 630 ft 0 kts 147°
2026-05-07 23:19 39.07114 -76.75785 630 ft 1 kts 147°
2026-05-07 23:19 39.07115 -76.75784 629 ft 0 kts 147°
2026-05-07 23:20 39.07115 -76.75785 630 ft 0 kts 147°
2026-05-07 23:20 39.07115 -76.75784 630 ft 0 kts 147°
2026-05-07 23:21 39.07115 -76.75785 630 ft 0 kts 147°
2026-05-07 23:21 39.07115 -76.75784 629 ft 0 kts 147°
2026-05-07 23:22 39.07114 -76.75785 630 ft 1 kts 147°
2026-05-07 23:22 39.07115 -76.75784 629 ft 0 kts 147°
2026-05-07 23:24 39.07115 -76.75785 629 ft 0 kts 147°
2026-05-07 23:24 39.07115 -76.75784 630 ft 0 kts 147°
2026-05-07 23:25 39.07114 -76.75785 629 ft 0 kts 147°
2026-05-07 23:25 39.07115 -76.75784 628 ft 0 kts 147°
2026-05-07 23:26 39.07114 -76.75785 630 ft 0 kts 147°
2026-05-07 23:26 39.07115 -76.75784 629 ft 0 kts 147°
2026-05-07 23:26 39.07115 -76.75785 629 ft 0 kts 147°
2026-05-07 23:27 39.07115 -76.75784 629 ft 0 kts 147°
2026-05-07 23:28 39.07114 -76.75785 630 ft 0 kts 147°
2026-05-07 23:29 39.07115 -76.75784 630 ft 0 kts 147°
2026-05-07 23:29 39.07115 -76.75785 629 ft 0 kts 147°
2026-05-07 23:29 39.07115 -76.75784 629 ft 0 kts 147°
2026-05-07 23:31 39.07115 -76.75785 629 ft 0 kts 147°
2026-05-07 23:32 39.07116 -76.75783 629 ft 0 kts 147°
2026-05-07 23:32 39.07115 -76.75784 629 ft 0 kts 147°
2026-05-07 23:33 39.07084 -76.75755 641 ft 19 kts 150°
2026-05-07 23:34 39.06862 -76.75589 655 ft 55 kts 154°
2026-05-07 23:34 39.06430 -76.75239 591 ft 92 kts 154°
2026-05-07 23:34 39.05795 -76.74711 426 ft 126 kts 153°
2026-05-07 23:34 39.04999 -76.74045 446 ft 141 kts 152°
2026-05-07 23:35 39.04216 -76.73396 579 ft 125 kts 152°
2026-05-07 23:35 39.03504 -76.72849 650 ft 117 kts 151°
2026-05-07 23:35 39.02794 -76.72318 827 ft 118 kts 152°
2026-05-07 23:35 39.02083 -76.71765 1036 ft 121 kts 152°
2026-05-07 23:36 39.01375 -76.71203 1050 ft 120 kts 152°
2026-05-07 23:36 39.00656 -76.70649 1031 ft 122 kts 152°
2026-05-07 23:36 38.99928 -76.70096 1019 ft 120 kts 152°
2026-05-07 23:36 38.99207 -76.69551 1014 ft 121 kts 152°
2026-05-07 23:37 38.98476 -76.69001 1012 ft 122 kts 152°
2026-05-07 23:37 38.97749 -76.68457 1012 ft 120 kts 153°
2026-05-07 23:37 38.96968 -76.67858 979 ft 142 kts 152°
2026-05-07 23:37 38.96146 -76.67214 1011 ft 138 kts 152°
2026-05-07 23:38 38.95589 -76.66779 1004 ft 139 kts 152°
2026-05-07 23:38 38.94486 -76.65932 1002 ft 140 kts 152°
2026-05-07 23:38 38.93645 -76.65294 1006 ft 140 kts 152°
2026-05-07 23:38 38.93079 -76.64861 1004 ft 141 kts 152°
2026-05-07 23:39 38.92232 -76.64210 1010 ft 142 kts 152°
2026-05-07 23:39 38.91389 -76.63557 1003 ft 141 kts 152°
2026-05-07 23:39 38.90282 -76.62689 1007 ft 140 kts 153°
2026-05-07 23:39 38.89722 -76.62246 992 ft 139 kts 152°
2026-05-07 23:40 38.88894 -76.61591 986 ft 140 kts 152°
2026-05-07 23:40 38.88067 -76.60937 991 ft 139 kts 152°
2026-05-07 23:40 38.87236 -76.60289 985 ft 141 kts 152°
2026-05-07 23:40 38.86400 -76.59634 992 ft 140 kts 152°
2026-05-07 23:41 38.85568 -76.58990 986 ft 141 kts 152°
2026-05-07 23:41 38.84726 -76.58339 984 ft 142 kts 152°
2026-05-07 23:41 38.83846 -76.57643 970 ft 158 kts 151°
2026-05-07 23:41 38.82902 -76.56888 989 ft 159 kts 152°
2026-05-07 23:42 38.81963 -76.56139 988 ft 160 kts 151°
2026-05-07 23:42 38.81021 -76.55397 996 ft 158 kts 152°
2026-05-07 23:42 38.80074 -76.54649 991 ft 160 kts 151°
2026-05-07 23:42 38.79125 -76.53906 985 ft 162 kts 151°
2026-05-07 23:43 38.78162 -76.53144 996 ft 162 kts 152°
2026-05-07 23:43 38.77248 -76.52305 991 ft 164 kts 140°
2026-05-07 23:43 38.76492 -76.51214 997 ft 162 kts 140°
2026-05-07 23:43 38.75477 -76.50717 994 ft 159 kts 184°
2026-05-07 23:44 38.74504 -76.51282 998 ft 158 kts 226°
2026-05-07 23:44 38.74171 -76.52514 1019 ft 142 kts 276°
2026-05-07 23:44 38.74635 -76.53518 1009 ft 130 kts 323°
2026-05-07 23:44 38.75467 -76.53733 1003 ft 122 kts 11°
2026-05-07 23:45 38.76118 -76.53154 1001 ft 113 kts 58°
2026-05-07 23:45 38.76253 -76.52151 960 ft 130 kts 99°
2026-05-07 23:45 38.75766 -76.51044 972 ft 156 kts 139°
2026-05-07 23:45 38.74796 -76.50470 992 ft 155 kts 175°
2026-05-07 23:46 38.73702 -76.50493 1046 ft 159 kts 185°
2026-05-07 23:46 38.72617 -76.50564 1404 ft 154 kts 185°
2026-05-07 23:46 38.71558 -76.50668 1420 ft 158 kts 188°
2026-05-07 23:46 38.70446 -76.50839 1414 ft 162 kts 192°
2026-05-07 23:47 38.69340 -76.51087 1404 ft 159 kts 194°
2026-05-07 23:47 38.68275 -76.51394 1404 ft 159 kts 196°
2026-05-07 23:47 38.67187 -76.51649 1404 ft 159 kts 192°
2026-05-07 23:47 38.66075 -76.51663 1406 ft 164 kts 173°
2026-05-07 23:48 38.64989 -76.51243 1408 ft 162 kts 167°
2026-05-07 23:48 38.63893 -76.50851 1403 ft 161 kts 170°
2026-05-07 23:48 38.62796 -76.50681 1404 ft 161 kts 179°
2026-05-07 23:48 38.61679 -76.50599 1404 ft 161 kts 184°
2026-05-07 23:49 38.60621 -76.50986 1405 ft 159 kts 217°
2026-05-07 23:49 38.59845 -76.51976 1406 ft 158 kts 228°
2026-05-07 23:49 38.59110 -76.53003 1406 ft 156 kts 231°
2026-05-07 23:49 38.58781 -76.54294 1403 ft 159 kts 274°
2026-05-07 23:50 38.59270 -76.55554 1401 ft 161 kts 309°
2026-05-07 23:50 38.60199 -76.56276 1406 ft 162 kts 355°
2026-05-07 23:50 38.61245 -76.55775 1403 ft 165 kts 29°
2026-05-07 23:50 38.62179 -76.55152 1539 ft 130 kts 27°
2026-05-07 23:51 38.62829 -76.54743 1444 ft 82 kts 20°
2026-05-07 23:51 38.63312 -76.54428 1392 ft 82 kts 22°
2026-05-07 23:51 38.63882 -76.54029 1395 ft 104 kts 27°
2026-05-07 23:51 38.64582 -76.53576 1396 ft 122 kts 25°
2026-05-07 23:52 38.65395 -76.53087 1397 ft 137 kts 27°
2026-05-07 23:52 38.66044 -76.52125 1397 ft 153 kts 66°
2026-05-07 23:52 38.66156 -76.50747 1397 ft 162 kts 101°
2026-05-07 23:52 38.65648 -76.49437 1397 ft 170 kts 132°
2026-05-07 23:53 38.64655 -76.48609 1397 ft 175 kts 162°
2026-05-07 23:53 38.63504 -76.48235 1460 ft 161 kts 171°
2026-05-07 23:53 38.62490 -76.48010 1447 ft 140 kts 175°
2026-05-07 23:53 38.61571 -76.47930 1437 ft 124 kts 183°
2026-05-07 23:54 38.60812 -76.48378 1427 ft 125 kts 228°
2026-05-07 23:54 38.60356 -76.49326 1428 ft 123 kts 233°
2026-05-07 23:54 38.59626 -76.49839 1421 ft 126 kts 189°
2026-05-07 23:54 38.58783 -76.49556 1426 ft 129 kts 151°
2026-05-07 23:55 38.58051 -76.48899 1423 ft 128 kts 147°
2026-05-07 23:55 38.57304 -76.48284 1422 ft 128 kts 152°
2026-05-07 23:55 38.56514 -76.47768 1426 ft 127 kts 157°
2026-05-07 23:55 38.55698 -76.47338 1424 ft 127 kts 162°
2026-05-07 23:56 38.54866 -76.46976 1424 ft 127 kts 165°
2026-05-07 23:56 38.54034 -76.46606 1418 ft 128 kts 150°
2026-05-07 23:56 38.53507 -76.45708 1426 ft 130 kts 107°
2026-05-07 23:56 38.53190 -76.44627 1423 ft 130 kts 115°
2026-05-07 23:57 38.52762 -76.43611 1420 ft 130 kts 123°
2026-05-07 23:57 38.52233 -76.42676 1424 ft 130 kts 131°
2026-05-07 23:57 38.51615 -76.41846 1420 ft 129 kts 138°
2026-05-07 23:57 38.50922 -76.41128 1425 ft 128 kts 143°
2026-05-07 23:58 38.50252 -76.40397 1424 ft 129 kts 136°
2026-05-07 23:58 38.49689 -76.39491 1426 ft 129 kts 123°
2026-05-07 23:58 38.49231 -76.38504 1427 ft 130 kts 120°
2026-05-07 23:58 38.48816 -76.37496 1423 ft 130 kts 117°
2026-05-07 23:59 38.48438 -76.36455 1423 ft 129 kts 114°
2026-05-07 23:59 38.48103 -76.35394 1426 ft 129 kts 111°
2026-05-07 23:59 38.47808 -76.34306 1420 ft 131 kts 108°
2026-05-07 23:59 38.47554 -76.33193 1424 ft 130 kts 105°
2026-05-08 00:00 38.47255 -76.32106 1416 ft 132 kts 118°
2026-05-08 00:00 38.46711 -76.31173 1423 ft 130 kts 135°
2026-05-08 00:00 38.46099 -76.30335 1424 ft 129 kts 134°
2026-05-08 00:00 38.45495 -76.29486 1420 ft 130 kts 134°
2026-05-08 00:01 38.44896 -76.28621 1431 ft 130 kts 133°
2026-05-08 00:01 38.44306 -76.27751 1422 ft 129 kts 131°
2026-05-08 00:01 38.43730 -76.26881 1422 ft 128 kts 131°
2026-05-08 00:01 38.43161 -76.26006 1420 ft 129 kts 131°
2026-05-08 00:02 38.42593 -76.25105 1428 ft 131 kts 130°
2026-05-08 00:02 38.42037 -76.24195 1422 ft 129 kts 128°
2026-05-08 00:02 38.41466 -76.23316 1415 ft 130 kts 140°
2026-05-08 00:02 38.40643 -76.22941 1421 ft 126 kts 182°
2026-05-08 00:03 38.39853 -76.23332 1420 ft 122 kts 223°
2026-05-08 00:03 38.39319 -76.24167 1422 ft 122 kts 234°
2026-05-08 00:03 38.38812 -76.25037 1425 ft 121 kts 235°
2026-05-08 00:03 38.38306 -76.25894 1420 ft 122 kts 233°
2026-05-08 00:04 38.37779 -76.26722 1439 ft 114 kts 232°
2026-05-08 00:04 38.37319 -76.27444 1434 ft 97 kts 233°
2026-05-08 00:04 38.36938 -76.28081 1425 ft 84 kts 234°
2026-05-08 00:04 38.36564 -76.28722 1415 ft 94 kts 234°
2026-05-08 00:05 38.36197 -76.29361 1421 ft 85 kts 235°
2026-05-08 00:05 38.35857 -76.29968 1498 ft 84 kts 235°
2026-05-08 00:05 38.35527 -76.30570 1401 ft 83 kts 237°
2026-05-08 00:05 38.35163 -76.31146 1233 ft 83 kts 233°
2026-05-08 00:06 38.34794 -76.31712 1042 ft 86 kts 225°
2026-05-08 00:06 38.34330 -76.32234 1007 ft 96 kts 227°
2026-05-08 00:06 38.33887 -76.32874 1030 ft 93 kts 230°
2026-05-08 00:06 38.33470 -76.33506 1025 ft 96 kts 229°
2026-05-08 00:07 38.33048 -76.34142 987 ft 95 kts 232°
2026-05-08 00:07 38.32644 -76.34746 903 ft 82 kts 229°
2026-05-08 00:07 38.32284 -76.35295 761 ft 86 kts 233°
2026-05-08 00:07 38.31898 -76.35917 676 ft 92 kts 229°
2026-05-08 00:08 38.31483 -76.36500 687 ft 84 kts 226°
2026-05-08 00:08 38.31088 -76.36992 694 ft 75 kts 222°
2026-05-08 00:08 38.30722 -76.37398 692 ft 65 kts 223°
2026-05-08 00:08 38.30424 -76.37778 699 ft 56 kts 224°
2026-05-08 00:09 38.30156 -76.38109 700 ft 53 kts 228°
2026-05-08 00:09 38.29894 -76.38479 694 ft 63 kts 231°
2026-05-08 00:09 38.29578 -76.38960 698 ft 78 kts 229°
2026-05-08 00:09 38.29175 -76.39511 699 ft 92 kts 228°
2026-05-08 00:10 38.28712 -76.40140 695 ft 103 kts 227°
2026-05-08 00:10 38.28200 -76.40830 695 ft 111 kts 227°
2026-05-08 00:10 38.27657 -76.41557 712 ft 111 kts 228°
2026-05-08 00:10 38.27137 -76.42420 659 ft 139 kts 240°
2026-05-08 00:11 38.26803 -76.43658 689 ft 153 kts 260°
2026-05-08 00:11 38.26759 -76.45030 694 ft 157 kts 270°
2026-05-08 00:11 38.26724 -76.46408 701 ft 155 kts 266°
2026-05-08 00:11 38.26621 -76.47789 698 ft 159 kts 264°
2026-05-08 00:12 38.26448 -76.49174 701 ft 158 kts 260°
2026-05-08 00:12 38.26216 -76.50534 703 ft 156 kts 257°
2026-05-08 00:12 38.25924 -76.51873 700 ft 159 kts 253°
2026-05-08 00:12 38.25571 -76.53181 701 ft 157 kts 250°
2026-05-08 00:13 38.25157 -76.54468 698 ft 158 kts 247°
2026-05-08 00:13 38.24675 -76.55740 707 ft 156 kts 244°
2026-05-08 00:13 38.24157 -76.56930 698 ft 157 kts 240°
2026-05-08 00:13 38.23567 -76.58111 708 ft 158 kts 237°
2026-05-08 00:14 38.22936 -76.59238 703 ft 156 kts 233°
2026-05-08 00:14 38.22380 -76.60417 707 ft 156 kts 248°
2026-05-08 00:14 38.22157 -76.61767 708 ft 158 kts 267°
2026-05-08 00:14 38.22069 -76.63162 709 ft 159 kts 265°
2026-05-08 00:15 38.21973 -76.64433 717 ft 156 kts 264°
2026-05-08 00:15 38.21855 -76.65810 712 ft 157 kts 264°
2026-05-08 00:15 38.21717 -76.67196 713 ft 159 kts 263°
2026-05-08 00:15 38.21559 -76.68582 712 ft 158 kts 261°
2026-05-08 00:16 38.21386 -76.69959 701 ft 158 kts 261°
2026-05-08 00:16 38.21193 -76.71331 710 ft 156 kts 259°
2026-05-08 00:16 38.20984 -76.72687 706 ft 158 kts 259°
2026-05-08 00:16 38.20753 -76.74050 711 ft 156 kts 258°
2026-05-08 00:17 38.20503 -76.75398 707 ft 158 kts 257°
2026-05-08 00:17 38.20408 -76.76791 709 ft 159 kts 272°
2026-05-08 00:17 38.20603 -76.78177 710 ft 160 kts 288°
2026-05-08 00:17 38.21003 -76.79303 709 ft 160 kts 301°
2026-05-08 00:18 38.21627 -76.80472 708 ft 160 kts 304°
2026-05-08 00:18 38.22252 -76.81646 708 ft 161 kts 303°
2026-05-08 00:18 38.22868 -76.82835 711 ft 161 kts 303°
2026-05-08 00:18 38.23474 -76.84032 710 ft 161 kts 302°
2026-05-08 00:19 38.24073 -76.85229 702 ft 160 kts 302°
2026-05-08 00:19 38.24663 -76.86430 706 ft 160 kts 301°
2026-05-08 00:19 38.25242 -76.87641 705 ft 161 kts 300°
2026-05-08 00:19 38.25812 -76.88865 708 ft 161 kts 300°
2026-05-08 00:20 38.26369 -76.90098 707 ft 160 kts 300°
2026-05-08 00:20 38.26914 -76.91337 707 ft 161 kts 299°
2026-05-08 00:20 38.27450 -76.92585 708 ft 160 kts 298°
2026-05-08 00:20 38.27974 -76.93836 705 ft 160 kts 298°
2026-05-08 00:21 38.28489 -76.95103 708 ft 161 kts 297°
2026-05-08 00:21 38.28991 -76.96370 709 ft 160 kts 298°
2026-05-08 00:21 38.29700 -76.97461 707 ft 162 kts 320°
2026-05-08 00:21 38.30680 -76.98168 704 ft 163 kts 335°
2026-05-08 00:22 38.31741 -76.98695 708 ft 164 kts 339°
2026-05-08 00:22 38.32814 -76.99125 708 ft 164 kts 343°
2026-05-08 00:22 38.33920 -76.99494 703 ft 164 kts 346°
2026-05-08 00:22 38.35038 -76.99807 710 ft 164 kts 348°
2026-05-08 00:23 38.36168 -77.00058 710 ft 165 kts 351°
2026-05-08 00:23 38.37304 -77.00246 709 ft 164 kts 354°
2026-05-08 00:23 38.38434 -77.00461 704 ft 164 kts 348°
2026-05-08 00:23 38.39537 -77.00835 703 ft 164 kts 341°
2026-05-08 00:24 38.40595 -77.01388 706 ft 164 kts 332°
2026-05-08 00:24 38.41525 -77.02212 710 ft 162 kts 318°
2026-05-08 00:24 38.42269 -77.03282 715 ft 161 kts 306°
2026-05-08 00:24 38.42792 -77.04542 710 ft 161 kts 292°
2026-05-08 00:25 38.42951 -77.05937 705 ft 161 kts 262°
2026-05-08 00:25 38.42414 -77.07153 720 ft 157 kts 228°
2026-05-08 00:25 38.41640 -77.08133 711 ft 159 kts 225°
2026-05-08 00:25 38.40829 -77.09058 717 ft 156 kts 222°
2026-05-08 00:26 38.40270 -77.09646 709 ft 158 kts 220°
2026-05-08 00:26 38.39422 -77.10515 715 ft 155 kts 227°
2026-05-08 00:26 38.38798 -77.11632 709 ft 156 kts 237°
2026-05-08 00:26 38.38191 -77.12782 712 ft 157 kts 237°
2026-05-08 00:27 38.37570 -77.13924 714 ft 157 kts 236°
2026-05-08 00:27 38.36719 -77.15435 718 ft 158 kts 236°
2026-05-08 00:27 38.36072 -77.16560 713 ft 157 kts 234°
2026-05-08 00:27 38.35708 -77.17369 715 ft 156 kts 249°
2026-05-08 00:28 38.35530 -77.18735 711 ft 159 kts 270°
2026-05-08 00:28 38.35598 -77.20134 716 ft 159 kts 277°
2026-05-08 00:28 38.35810 -77.21518 718 ft 159 kts 285°
2026-05-08 00:28 38.36159 -77.22828 706 ft 160 kts 292°
2026-05-08 00:29 38.36648 -77.24104 717 ft 160 kts 299°
2026-05-08 00:29 38.37265 -77.25285 715 ft 161 kts 307°
2026-05-08 00:29 38.38002 -77.26366 716 ft 162 kts 314°
2026-05-08 00:29 38.38843 -77.27317 717 ft 162 kts 321°
2026-05-08 00:30 38.39781 -77.28129 717 ft 163 kts 328°
2026-05-08 00:30 38.40794 -77.28786 720 ft 164 kts 336°
2026-05-08 00:30 38.41866 -77.29277 719 ft 164 kts 343°
2026-05-08 00:30 38.42979 -77.29590 722 ft 164 kts 351°
2026-05-08 00:31 38.44119 -77.29721 720 ft 165 kts 358°
2026-05-08 00:31 38.45160 -77.29682 718 ft 166 kts
2026-05-08 00:31 38.46324 -77.29461 718 ft 166 kts 11°
2026-05-08 00:31 38.47459 -77.29171 723 ft 166 kts 12°
2026-05-08 00:32 38.48590 -77.28848 720 ft 167 kts 13°
2026-05-08 00:32 38.49718 -77.28543 721 ft 166 kts
2026-05-08 00:32 38.50864 -77.28507 718 ft 165 kts 359°
2026-05-08 00:32 38.51999 -77.28700 717 ft 166 kts 345°
2026-05-08 00:33 38.53095 -77.29142 720 ft 164 kts 339°
2026-05-08 00:33 38.54117 -77.29738 723 ft 163 kts 332°
2026-05-08 00:33 38.55052 -77.30553 720 ft 163 kts 322°
2026-05-08 00:33 38.55949 -77.31427 719 ft 162 kts 323°
2026-05-08 00:34 38.56986 -77.31981 723 ft 166 kts 355°
2026-05-08 00:34 38.58087 -77.31605 713 ft 169 kts 33°
2026-05-08 00:34 38.59027 -77.30723 721 ft 167 kts 38°
2026-05-08 00:34 38.59969 -77.29838 720 ft 168 kts 37°
2026-05-08 00:35 38.60975 -77.29098 719 ft 166 kts 25°
2026-05-08 00:35 38.61993 -77.28410 714 ft 167 kts 32°
2026-05-08 00:35 38.62965 -77.27568 718 ft 170 kts 37°
2026-05-08 00:35 38.63945 -77.26741 719 ft 168 kts 30°
2026-05-08 00:36 38.64919 -77.25933 718 ft 167 kts 42°
2026-05-08 00:36 38.65848 -77.25022 715 ft 170 kts 36°
2026-05-08 00:36 38.66783 -77.24120 713 ft 167 kts 41°
2026-05-08 00:36 38.67680 -77.23172 692 ft 168 kts 37°
2026-05-08 00:37 38.68697 -77.22453 692 ft 166 kts 29°
2026-05-08 00:37 38.69727 -77.21780 690 ft 166 kts 29°
2026-05-08 00:37 38.70760 -77.21110 684 ft 167 kts 27°
2026-05-08 00:38 38.72842 -77.19795 712 ft 160 kts 29°
2026-05-08 00:38 38.73764 -77.19177 691 ft 145 kts 30°
2026-05-08 00:38 38.74687 -77.18614 684 ft 149 kts 19°
2026-05-08 00:38 38.75704 -77.18355 683 ft 149 kts
2026-05-08 00:39 38.76730 -77.18286 683 ft 147 kts
2026-05-08 00:39 38.77746 -77.18129 686 ft 148 kts 12°
2026-05-08 00:39 38.78733 -77.17755 681 ft 149 kts 20°
2026-05-08 00:39 38.79611 -77.17050 682 ft 150 kts 45°
2026-05-08 00:40 38.80365 -77.16149 681 ft 148 kts 45°
2026-05-08 00:40 38.80994 -77.15105 681 ft 149 kts 61°
2026-05-08 00:40 38.81528 -77.13975 704 ft 148 kts 63°
2026-05-08 00:40 38.82101 -77.12863 712 ft 150 kts 54°
2026-05-08 00:41 38.82741 -77.11815 707 ft 149 kts 59°
2026-05-08 00:41 38.83233 -77.10673 674 ft 138 kts 72°
2026-05-08 00:41 38.83535 -77.09592 581 ft 123 kts 74°
2026-05-08 00:41 38.83951 -77.08669 544 ft 117 kts 54°
2026-05-08 00:42 38.84350 -77.07817 474 ft 107 kts 82°
2026-05-08 00:42 38.84435 -77.06970 479 ft 86 kts 91°
2026-05-08 00:42 38.84424 -77.06299 468 ft 67 kts 107°
2026-05-08 00:42 38.84356 -77.05749 423 ft 60 kts 103°
2026-05-08 00:43 38.84374 -77.05243 353 ft 50 kts 88°
2026-05-08 00:43 38.84422 -77.04932 218 ft 23 kts 74°
2026-05-08 00:43 38.84498 -77.04738 163 ft 24 kts 46°
2026-05-08 00:43 38.84567 -77.04620 101 ft 9 kts 332°
2026-05-08 00:44 38.84598 -77.04597 44 ft 4 kts 328°
2026-05-08 00:44 38.84605 -77.04597 24 ft 1 kts 328°
2026-05-08 00:44 38.84606 -77.04598 22 ft 0 kts 338°
2026-05-08 00:45 38.84617 -77.04612 22 ft 4 kts 315°
2026-05-08 00:45 38.84626 -77.04622 21 ft 0 kts 324°